星链-11308 (STARLINK-11308)

导读

STARLINK-11308是美国太空探索技术公司星链星座的成员,于2024年9月25日发射入轨,归属美国。星链项目旨在构建覆盖全球的低轨卫星互联网星座,该卫星入轨后,将和其他星链卫星协同工作,为全球范围内用户提供低延迟、高速率的宽带互联网接入服务,推进全球网络覆盖建设。

Basic Information
目录编号:
61246
目录名称:
STARLINK-11308
国际标识:
2024-175D
轨道中心:
EARTH
卫星名称:
星链-11308
卫星全名:
星链-11308 (STARLINK-11308)
卫星状态:
在轨 (已飞行671 天)
发射日期:
2024-09-25 UTC
国别 :
美国 (US)
星等 :
--
Orbit Information
数据来源 国际轨道数据 AOE轨道数据
星历时间 2026-07-27T08:51:57+0800
23小时前
查看轨道信息
2026-07-23T00:00:00+0800
5天前
查看轨道信息
半长轴 6737.862km 6737.805km
偏心率 0.0000679 0.0000795
轨道倾角 53.158° 53.159°
近地点辐角 130.232° 108.934°
升交点赤经 89.252° 110.790°
平近点角 229.876° 25.662°
近地点 359.267km 359.132km
远地点 360.183km 360.204km
周期 91.737分钟 91.735分钟
每日圈数 15.697108 15.697306
Detailed Information
固有亮度:
5
最大亮度:
2.5
卫星平台:
Starlink V1.0
覆盖范围:
全球
运营商:
太空探索技术公司
运营商所在国:
美国
制造商(研发单位):
太空探索技术公司
制造商所在国:
美国
使用方式:
暂无
Satellite Introduction
Starlink 计划是 SpaceX 推出的全球卫星互联网项目,通过发射低轨道卫星,为全球尤其是偏远地区提供高速、低延迟的互联网服务。自 2019 年起,Starlink 已部署数千颗卫星,旨在缩小全球数字鸿沟,推动互联网普及。该项目还为军事、航空等行业提供通信支持,带来广泛经济效益。
2D Orbit Map
3D Orbit Map
Orbit Altitude Analysis Chart
Orbit Inclination Analysis Chart
Orbit Comprehensive Analysis Chart
View Comprehensive Chart